Location: Ullin
(37.2770°N, 89.1834°W)
Time: 00:01:09
(UTC+00:00)

Daily predictions for brighter satellites

Satellite Brightness Start Highest point End
(mag) Time Altitude Azimuth Time Altitude Azimuth Time Altitude Azimuth
Cosmos 1486 Rocket 4.5 01:20:19 10° SSW 01:25:36 71° WNW 01:30:57 10° NNE
Cosmos 1745 Rocket 4.3 01:23:31 10° N 01:29:25 46° E 01:35:15 10° SSE
SL-4 R/B 3.1 01:26:02 10° WNW 01:30:11 43° SW 01:34:33 10° SSE
Cosmos 1844 4.3 01:26:55 10° SSW 01:32:35 64° WNW 01:38:14 10° NNE
SL-08 ROCKET BODY 4.3 01:30:58 10° N 01:36:52 81° E 01:42:41 10° S
Cosmos 1242 Rocket 2.6 01:38:13 10° S 01:41:42 53° E 01:45:09 10° NNE
USA 186 1.1 01:39:49 10° S 01:42:18 78° WSW 01:44:40 10° NNW
Resurs 01 Rocket 3.1 01:41:39 11° ESE 01:44:49 21° ENE 01:48:10 10° NNE
GPS 2-04 Rocket1 2.8 01:41:01 10° WSW 01:45:07 65° S 01:49:11 10° E
S3M 4.0 01:39:38 10° S 01:45:59 78° E 01:52:19 10° N
X-37B 1.4 01:48:42 10° NW 01:51:47 43° NNE 01:54:18 14° E
Cosmos 2315 Rocket 4.3 01:50:38 10° SSE 01:56:41 48° E 02:02:46 10° NNE
Delta 2 Rocket 3.9 01:53:39 10° WSW 01:58:49 57° SSE 02:03:03 12° E
OBJECT-B 1.1 01:56:24 10° S 01:59:37 68° W 02:02:51 10° NNW
Cosmos 1805 Rocket 3.7 01:56:22 10° N 02:00:44 76° W 02:05:05 10° S
ERS-2 3.9 01:57:59 10° N 02:01:19 35° WNW 02:04:38 10° SW
Cosmos 1633 Rocket 3.6 02:01:04 10° N 02:05:14 40° E 02:07:58 19° SE
Cosmos 1328 Rocket 3.8 02:05:08 10° SSE 02:09:24 50° E 02:13:41 10° NNE
USA 267 3.9 02:03:10 10° SSE 02:09:29 50° SW 02:15:50 10° NW
ISS -2.7 02:11:02 10° SSW 02:13:26 26° SSE 02:13:26 26° SSE
Cosmos 1777 Rocket 3.9 02:10:27 10° S 02:15:36 71° ESE 02:20:47 10° NNE
USA 290 3.5 02:14:15 10° NW 02:17:16 38° WSW 02:19:47 13° S
Cosmos 1470 Rocket 4.4 02:15:44 10° NNE 02:19:48 33° ENE 02:21:26 25° ESE
Meteor 1-26 Rocket 4.2 02:14:54 10° S 02:20:36 87° W 02:26:09 10° N
Cosmos 2082 Rocket 3.9 02:16:40 10° N 02:20:36 19° NE 02:23:13 14° E
Ariane Rocket 3.0 02:16:50 12° S 02:21:28 80° WSW 02:26:33 10° NNW
Cosmos 1602 3.6 02:19:43 10° N 02:23:36 82° E 02:25:55 23° S
Cosmos 1437 2.3 02:25:45 25° SSW 02:27:13 83° W 02:30:03 10° N
Tianhe-1 1.4 02:25:25 10° SW 02:28:15 42° SSE 02:28:15 42° SSE
Resurs 1-3 3.9 02:27:18 16° S 02:30:46 66° W 02:35:07 10° NNW
IRIS 3.6 02:29:29 10° WNW 02:31:50 80° NNE 02:32:05 68° E
ARIANE 5 R/B 4.0 02:31:08 20° E 02:31:58 21° ENE 02:35:16 10° NNE
OAO 3 Rocket 3.5 02:28:40 10° SW 02:33:01 40° SSE 02:34:13 33° SE
COSMOS 2406 3.6 02:28:55 10° N 02:34:24 47° ENE 02:36:56 29° ESE
Cosmos 1782 3.4 02:30:42 10° SSW 02:34:37 57° W 02:38:33 10° N
Cosmos 1666 Rocket 3.7 02:31:22 10° NNW 02:35:44 70° W 02:38:36 20° S
DELTA 2 R/B (1) 4.3 02:30:49 10° W 02:35:59 40° SSW 02:38:23 26° SSE
Cosmos 1943 Rocket 4.2 02:39:12 12° ENE 02:39:12 12° ENE 02:40:03 10° ENE
Cosmos 1812 2.6 02:37:33 37° SSE 02:38:52 64° E 02:42:42 10° NNE
SJ 16-02 1.3 02:36:32 22° S 02:39:13 63° ESE 02:43:36 10° NNE
Cosmos 2278 Rocket 2.2 02:35:06 10° SSW 02:40:45 85° WNW 02:46:27 10° NNE
Meteor 1-14 Rocket 4.2 02:38:05 10° N 02:43:54 75° E 02:46:52 29° SSE
Meteor 2-6 Rocket 4.1 02:41:00 24° S 02:44:16 64° E 02:49:44 10° NNE
Iridium 4 Rocket 4.2 02:42:49 31° SE 02:44:53 43° E 02:50:25 10° NNE
Cosmos 1666 3.6 02:42:19 10° NNE 02:45:30 31° ENE 02:45:30 31° ENE
Landsat 7 3.7 02:45:52 35° SSE 02:47:54 81° ENE 02:52:40 10° N
Cosmos 1151 Rocket 4.4 02:47:59 10° SSW 02:52:02 38° WNW 02:56:08 10° N
Meteor 1-27 Rocket 4.4 02:52:26 33° ESE 02:53:24 35° E 02:58:42 10° NNE
USA 305 4.0 02:52:38 10° NNW 02:56:33 34° NE 02:57:39 29° ENE
ATLAS 5 CENTAUR R/B 3.4 02:51:34 10° NW 02:57:15 43° WSW 03:01:21 21° S
CZ-4C R/B 3.0 02:52:53 10° NNW 03:00:30 85° ENE 03:04:45 34° SE
NOSS 3-4 (A) 4.4 02:56:52 10° NNW 03:03:45 49° NE 03:07:09 31° ESE
NOSS 3-4 (C) 4.4 02:56:59 10° NNW 03:03:52 49° NE 03:07:15 31° ESE
IGS 5A 4.1 03:03:39 35° SSW 03:05:03 51° W 03:09:06 10° NNW
SPOT 1/Viking Rocket 3.5 03:03:30 45° SSE 03:05:08 80° ENE 03:10:20 10° N
Cosmos 1500 4.1 03:12:25 10° NNW 03:15:56 40° W 03:16:32 37° WSW
USA 306 3.4 03:11:59 10° NW 03:16:07 47° NE 03:16:24 46° NE
ATLAS 2AS CENTAUR R/B 3.8 03:10:23 10° NNW 03:16:57 35° NE 03:19:41 26° E
Cosmos 2154 Rocket 4.3 03:11:21 10° N 03:17:24 47° ENE 03:18:30 43° ESE
Cosmos 1833 Rocket 2.8 03:14:31 10° NNW 03:20:09 71° WSW 03:21:40 48° S
SPOT 3 Rocket 4.4 03:18:17 27° SSW 03:20:37 43° W 03:25:31 10° NNW
Resurs 01 Rocket 3.1 03:19:13 22° SW 03:21:05 31° W 03:25:03 10° NW
Cosmos 2228 Rocket 3.0 03:21:24 72° ENE 03:21:24 72° ENE 03:25:40 10° N
Nadezhda 1 Rocket 4.0 03:21:49 50° SSE 03:23:21 66° E 03:29:32 10° NNE
Cosmos 2184 Rocket 3.9 03:18:12 10° N 03:24:26 80° E 03:26:01 52° SSE
GPS 2-04 Rocket1 3.5 03:20:24 10° W 03:23:21 42° WSW 03:23:21 42° WSW
Cosmos 1536 4.1 03:21:58 10° N 03:24:37 31° NE 03:24:37 31° NE
Cosmos 2074 Rocket 3.9 03:20:01 10° N 03:26:21 86° E 03:28:08 51° S
Meteor 1-11 Rocket 3.8 03:21:17 10° N 03:27:13 66° E 03:28:07 58° SE
X-37B 3.2 03:25:33 10° W 03:26:35 17° W 03:26:35 17° W
Spot 2 Rocket 3.4 03:28:10 66° S 03:28:52 83° WSW 03:33:56 10° NNW
Cosmos 1538 Rocket 4.2 03:24:19 10° NNW 03:29:36 65° WSW 03:30:36 53° SSW
ERS-1 Rocket 2.9 03:29:55 65° E 03:30:08 66° ENE 03:35:07 10° N
Cosmos 1937 Rocket 4.3 03:33:12 36° ENE 03:33:12 36° ENE 03:36:44 10° NNE
Delta 2 Rocket 4.2 03:36:14 10° W 03:39:54 47° WSW 03:39:54 47° WSW
Cosmos 2297 3.5 03:42:09 75° SE 03:42:20 76° ESE 03:48:01 10° NNE
Cosmos 1869 Rocket 4.0 03:38:57 10° N 03:42:25 55° NNE 03:42:25 55° NNE
USA 307 3.4 03:39:30 10° NW 03:42:59 57° NNW 03:42:59 57° NNW
Cosmos 1680 Rocket 3.8 03:39:55 10° N 03:44:59 54° ENE 03:44:59 54° ENE
Cosmos 967 Rocket 4.3 03:45:38 50° SSW 03:47:25 89° ESE 03:53:43 10° NNE
Cosmos 1271 Rocket 4.4 03:46:58 28° W 03:47:34 30° WNW 03:51:07 10° NNW
Cosmos 1610 Rocket 4.3 03:43:39 10° N 03:49:48 84° E 03:50:27 72° SSE
Milstar 3 3.6 03:41:22 10° WSW 03:54:51 52° S 03:56:12 49° SSE
Terra 2.1 03:56:00 65° N 03:56:00 65° N 04:00:07 10° N
USA 308 3.9 03:53:12 10° NW 03:56:12 44° NW 03:56:12 44° NW
H-2A R/B 4.4 03:54:49 10° N 03:57:45 44° N 03:57:45 44° N
Cosmos 44 4.1 03:54:28 10° NNW 03:59:24 47° NE 03:59:24 47° NE
Cosmos 2082 Rocket 2.4 03:59:33 10° NNW 04:05:04 59° WSW 04:05:04 59° WSW
ARIANE 5 R/B 4.2 04:08:41 28° W 04:08:41 28° W 04:12:02 10° NW
Cosmos 1295 Rocket 4.5 04:05:10 10° N 04:11:31 76° W 04:12:00 72° SW
SPOT 5 3.7 04:12:49 48° W 04:12:49 48° W 04:17:43 10° NNW
Cosmos 1818 4.4 04:09:16 10° NNW 04:14:10 42° NE 04:14:10 42° NE
Cosmos 1898 Rocket 4.1 04:14:18 48° W 04:14:50 50° WNW 04:20:02 10° N
Cosmos 2341 Rocket 4.0 04:09:53 10° N 04:16:10 71° ENE 04:16:10 71° ENE
SJ 16-02 4.4 04:16:48 10° WNW 04:18:13 11° WNW 04:19:39 10° NW
Cosmos 1943 Rocket 2.3 04:20:39 69° NW 04:20:39 69° NW 04:26:03 10° NNE
Cosmos 2218 Rocket 4.4 04:20:59 10° N 04:26:40 54° ENE 04:26:40 54° ENE
Cosmos 2369 Rocket 2.9 04:33:00 46° NE 04:33:00 46° NE 04:36:56 10° NNE
SL-8 Rocket 4.1 04:39:27 10° N 04:45:15 75° NNW 04:45:15 75° NNW
Cosmos 1238 Rocket 4.2 04:41:13 10° N 04:45:44 53° NNW 04:45:44 53° NNW
Gbstr 26 Del rocket 4.3 04:56:36 10° NW 05:03:26 60° NNE 05:03:26 60° NNE
ATLAS 2AS CENTAUR R/B 3.3 05:01:17 10° NW 05:07:06 45° W 05:07:06 45° W
Meteor 2-4 Rocket 4.4 05:12:55 52° N 05:12:55 52° N 05:17:11 10° N
Cosmos 1821 Rocket 4.4 05:40:19 10° N 05:45:32 61° NNW 05:45:32 61° NNW
SeaSat 1 4.0 05:58:32 10° NNE 06:01:03 30° NE 06:01:03 30° NE
ATLAS CENTAUR R/B 4.3 06:06:18 12° N 06:06:18 12° N 06:06:47 10° N
Cosmos 2369 Rocket 4.4 06:14:45 15° WNW 06:15:56 16° NW 06:19:16 10° NNW
Lacrosse 5 3.3 06:27:22 35° N 06:27:22 35° N 06:30:36 10° NNE
CZ-2D R/B 4.0 06:29:58 10° NE 06:33:07 21° ENE 06:33:07 21° ENE
Resurs 1-4 Rocket 3.8 06:35:58 10° NE 06:39:15 24° ENE 06:39:15 24° ENE
USA 215 3.8 06:39:06 29° E 06:42:21 53° NE 06:48:40 10° NW
USA 281 4.1 06:49:16 32° ESE 06:51:34 42° ENE 06:57:40 10° N
Cosmos 1605 Rocket 4.3 06:46:20 10° NNW 06:51:32 60° NW 06:51:32 60° NW
Cosmos 1980 Rocket 4.4 06:54:10 14° E 06:54:10 14° E 06:56:55 10° ENE
Cosmos 2227 Rocket 3.6 07:03:53 10° N 07:08:58 33° ENE 07:10:57 26° E
Cosmos 2297 Rocket 3.0 07:06:18 10° N 07:11:45 46° ENE 07:12:28 44° E
Cosmos 1656 3.9 07:26:41 61° NNW 07:26:41 61° NNW 07:31:25 10° NNE
Cosmos 1025 Rocket 4.4 07:31:57 35° ENE 07:31:57 35° ENE 07:35:09 10° NNE
Cosmos 2100 Rocket 3.9 07:26:15 10° N 07:32:36 88° W 07:32:47 85° SSW
Cosmos 2251 Rocket 3.7 07:28:34 10° NNW 07:33:16 66° NNE 07:33:16 66° NNE
Cosmos 2123 Rocket 4.1 07:33:54 61° ESE 07:34:30 65° E 07:40:38 10° NNE
Cosmos 1802 Rocket 4.0 07:28:41 10° N 07:34:49 70° E 07:35:31 64° SE
Cosmos 614 Rocket 4.3 07:32:50 10° N 07:37:53 58° ENE 07:37:57 58° ENE
IDEFIX/ARIANE 42P 4.3 07:42:59 10° NE 07:47:10 24° E 07:48:53 20° ESE
Cosmos 371 Rocket 4.1 07:48:59 44° NW 07:48:59 44° NW 07:52:54 10° N
COSMOS 2455 2.9 07:42:11 10° NNW 07:47:29 63° WNW 07:47:29 63° WNW
Helios 1B rocket 3.6 07:45:00 10° N 07:47:45 40° N 07:47:45 40° N
Cosmos 332 Rocket 4.0 07:53:44 64° NNW 07:53:44 64° NNW 07:58:00 10° NNE
Cosmos 2219 3.0 07:50:40 10° NNW 07:56:24 85° WSW 07:56:43 80° S
SL-16 R/B 2.4 08:00:37 65° SSW 08:01:25 73° WSW 08:07:42 10° NNW
Lacrosse 4 Rocket 1.8 08:02:37 64° N 08:02:37 64° N 08:06:26 10° NNE
Cosmos 1544 Rocket 3.7 08:00:31 10° N 08:04:39 69° NE 08:04:39 69° NE
Cosmos 1953 3.5 08:01:56 10° N 08:04:27 37° NNW 08:04:27 37° NNW
ADEOS II 2.0 08:00:59 10° NNE 08:06:15 75° ESE 08:06:53 66° SSE
Lacrosse 5 4.4 08:07:17 10° NW 08:09:42 13° NNW 08:12:07 10° N
AQUA 3.9 08:06:40 10° N 08:11:12 63° WNW 08:11:12 63° WNW
SL-08 R/B 4.4 08:05:17 10° N 08:11:41 84° W 08:13:31 50° S
NPP 3.9 08:08:28 10° N 08:13:42 52° WNW 08:14:01 51° W
CZ-2D R/B 2.7 08:09:15 10° N 08:14:16 41° WNW 08:14:26 41° WNW
Cosmos 1455 Rocket 4.0 08:10:45 10° NNW 08:13:38 36° NW 08:13:38 36° NW
ADEOS Rocket 3.8 08:12:28 13° SSE 08:19:13 68° ENE 08:26:56 10° N
Resurs 1-4 Rocket 2.9 08:15:24 10° N 08:20:08 35° WNW 08:20:20 35° WNW
Cosmos 1536 Rocket 3.5 08:20:10 81° SE 08:20:17 82° E 08:24:43 10° N
BREEZE-M DEB (TANK) 3.8 08:19:53 33° WNW 08:21:55 52° NNW 08:34:54 10° ENE
Meteor 2-5 Rocket 3.9 08:21:34 40° SSE 08:23:37 67° E 08:29:12 10° NNE
Cosmos 1697 Rocket 3.1 08:24:06 42° W 08:24:55 45° WNW 08:30:17 10° N
Cosmos 2360 4.4 08:24:06 48° W 08:25:04 54° WNW 08:30:42 10° NNE
USA 215 3.7 08:26:21 39° WSW 08:26:21 39° WSW 08:31:30 10° WNW
Cosmos 407 Rocket 3.5 08:21:56 10° NNW 08:27:19 87° ENE 08:29:41 35° SSE
Cosmos 1725 Rocket 4.0 08:21:57 10° NNW 08:28:05 61° W 08:29:35 47° SW
Atlas Centaur 2 3.9 08:28:29 25° S 08:29:20 25° SSE 08:34:49 10° ESE
GP-B 3.0 08:25:46 10° N 08:30:13 89° E 08:30:46 68° S
Meteor 1-16 Rocket 4.5 08:25:04 10° NNW 08:30:44 49° W 08:31:25 47° WSW
CZ-4C R/B 4.2 08:29:51 26° SE 08:32:00 53° ENE 08:36:04 10° N
Cosmos 1624 Rocket 4.0 08:32:24 55° SW 08:33:25 69° WNW 08:38:45 10° NNE
SL-14 R/B 3.4 08:34:44 60° NW 08:34:44 60° NW 08:38:20 10° N
CBERS-1 3.9 08:29:47 10° NNE 08:34:55 89° WNW 08:36:21 49° SSW
USA 281 3.8 08:36:07 34° WSW 08:36:07 34° WSW 08:41:54 10° NW
Cosmos 2233 Rocket 3.8 08:30:51 10° N 08:37:02 82° W 08:40:08 31° S
Cosmos 1980 Rocket 2.2 08:35:56 48° SW 08:37:27 70° WNW 08:43:08 10° NNE
CENTAUR R/B 4.3 08:34:15 11° SSE 08:38:06 21° ESE 08:42:37 10° ENE
Cosmos 1626 3.6 08:42:30 26° NW 08:42:30 26° NW 08:44:50 10° NNW
Cosmos 2016 Rocket 4.5 08:36:22 10° NNW 08:42:02 38° W 08:43:02 36° WSW
ISS -1.0 08:41:53 10° NNW 08:44:29 20° NNE 08:47:05 10° ENE
Spot 1 4.3 08:46:49 23° SSE 08:49:46 82° ENE 08:54:41 10° NNW
DELTA 2 DEB (DPAF) 4.3 08:51:43 47° WSW 08:52:10 49° W 08:56:30 10° NNW
Cosmos 1452 Rocket 4.0 08:49:49 25° S 08:52:46 56° ESE 08:57:56 10° NNE
Cosmos 2227 Rocket 3.0 08:48:00 10° NW 08:52:41 31° W 08:52:41 31° W
Cosmos 2056 Rocket 4.0 08:53:58 35° WSW 08:55:14 42° WNW 09:00:06 10° N
Cosmos 2297 Rocket 3.6 08:51:10 10° NW 08:54:12 20° W 08:54:12 20° W
Cosmos 1954 Rocket 4.3 08:50:22 10° NNW 08:55:39 71° ENE 09:00:56 10° SSE
Cosmos 2285 Rocket 4.3 08:55:09 33° SW 08:57:49 53° WNW 09:04:06 10° N
Cosmos 220 Rocket 4.0 08:56:53 40° SSW 08:58:27 88° E 09:02:53 10° NNE
Cosmos 1300 2.6 08:55:23 10° NNW 08:59:10 63° W 08:59:48 52° SW
Cosmos 2278 4.0 08:57:34 34° WSW 08:59:46 52° WNW 09:05:21 10° NNE
Cosmos 1346 Rocket 3.7 09:04:05 16° SSE 09:06:51 44° E 09:10:35 10° NNE
IRS-1C 4.1 09:01:33 10° N 09:06:54 80° WNW 09:10:05 25° SSW
CZ-2C R/B 3.9 09:03:11 10° NNE 09:07:54 35° E 09:12:36 10° SSE
Cosmos 2082 3.9 09:03:19 10° NW 09:08:44 46° WSW 09:12:48 17° S
OAO 2 Rocket 3.4 09:08:21 29° WSW 09:11:02 69° S 09:16:20 10° E
SL-16 R/B 2.6 09:08:41 18° S 09:12:55 61° ESE 09:18:30 10° NNE
Cosmos 1455 4.1 09:11:35 10° NNE 09:15:02 31° ENE 09:18:29 10° SE
MSX 3.8 09:09:30 10° N 09:15:16 73° WNW 09:19:17 21° SSW
Cosmos 1140 Rocket 4.2 09:16:45 10° NW 09:21:21 32° W 09:23:29 23° SW
SL-08 R/B 3.3 09:17:28 10° SSE 09:22:10 85° ENE 09:26:50 10° NNW
Cosmos 1892 Rocket 3.5 09:21:24 16° S 09:24:52 84° E 09:29:13 10° N
Cosmos 1340 3.8 09:24:28 24° W 09:25:12 26° WNW 09:28:23 10° NNW
IDEFIX/ARIANE 42P 3.3 09:21:58 10° N 09:26:49 38° WNW 09:29:42 21° SW
NOSS 3-2 (C) 4.1 09:24:42 11° S 09:29:38 45° ESE 09:35:21 10° NE
Cosmos 1072 Rocket 4.5 09:23:39 10° N 09:30:00 79° W 09:36:23 10° S
USA 32 4.2 09:32:16 10° N 09:37:33 75° E 09:42:47 10° S
Okean 1-7 Rocket 3.9 09:35:25 10° S 09:39:55 70° E 09:44:29 10° NNE
Cosmos 2322 Rocket 2.3 09:34:49 12° SSW 09:40:09 81° ESE 09:45:52 10° NNE
Meteor 2-10 Rocket 3.7 09:35:09 10° NNW 09:40:44 61° W 09:46:05 10° S
CZ-2C R/B 3.1 09:38:14 10° NNE 09:42:16 71° E 09:46:17 10° S
Cosmos 1891 Rocket 4.5 09:37:50 10° NNW 09:43:45 58° W 09:49:37 10° S
ADEOS II 4.1 09:42:55 10° NW 09:45:15 13° WNW 09:47:35 10° W
ARIANE 5 R/B 3.1 09:41:17 10° N 09:46:04 41° WNW 09:50:05 14° SW
Cosmos 2058 Rocket 3.3 09:42:14 10° N 09:46:46 78° E 09:51:16 10° S
Cosmos 2263 Rocket 2.2 09:42:35 10° NNW 09:48:13 69° WSW 09:53:49 10° S
Cosmos 1726 Rocket 3.6 09:45:09 10° NNW 09:49:26 56° W 09:53:45 10° S
Cosmos 1606 Rocket 4.0 09:45:20 10° NNW 09:49:31 42° W 09:53:41 10° SSW
Cosmos 2228 3.8 09:47:21 10° NNW 09:51:10 32° W 09:55:01 10° SSW
NOSS 3-2 (A) 3.4 09:47:34 15° SW 09:52:11 66° NW 09:58:21 10° NNE
CZ-4B R/B 4.4 09:51:54 10° N 09:56:18 31° WNW 10:00:26 12° SW
Meteor 1-21 Rocket 4.2 09:53:01 10° S 09:58:38 82° W 10:04:12 10° N
Tsikada Rocket 4.1 09:56:07 10° S 10:02:31 81° W 10:08:56 10° N
Cosmos 2360 Rocket 2.5 09:57:14 10° SSW 10:02:51 71° ESE 10:08:29 10° NNE
Cosmos 2219 Rocket 4.4 09:58:50 10° SSE 10:03:19 25° ESE 10:07:50 10° NE
USA 238 DEB 3.7 09:59:34 10° SW 10:06:03 73° WNW 10:12:51 10° NNE
USA 238 3.7 09:59:41 10° SW 10:06:10 73° NW 10:12:58 10° NNE
IRAS Rocket 4.4 10:01:19 10° SSE 10:06:53 83° ENE 10:12:31 10° NNW
Cosmos 1241 Rocket 4.5 10:01:04 10° NNW 10:07:31 75° WSW 10:13:47 10° SSE
Aureole 2 Rocket 3.7 10:08:06 10° WNW 10:09:35 14° W 10:11:02 10° SW
Cosmos 2237 4.2 10:05:58 10° SSW 10:11:41 80° WNW 10:17:25 10° NNE
Cosmos 1441 Rocket 3.7 10:08:32 10° S 10:12:24 65° E 10:16:21 10° NNE
BREEZE-M DEB (TANK) 3.9 10:04:06 10° NW 10:14:27 49° SW 10:17:48 10° SSE
Cosmos 1602 Rocket 3.9 10:10:31 10° S 10:14:47 68° E 10:19:08 10° NNE
Atlas Centaur 2 3.2 10:11:26 10° WSW 10:18:18 41° S 10:23:53 10° ESE
